Historyczne dane pomiarowe

Dodano dane terminowe – wersja testowa.

Dane z okresu 1951-2019

Wersja bazy: 1.34 [2019-03-16, lista zmian], aktualizacja planowana na 2019-04-15

Dane meteo z obszaru Polski uzyskane na podstawie danych udostępnionych przez Instytut Meteorologii i Gospodarki Wodnej – Państwowy Instytut Badawczy.

 

Wybierz Datę:    

       

TemperaturaWilgotnośćWiatrCiśnienieOpadyŚniegCzas trwania zjawisk
 Stacja t tx tn tng RH VA  wxwx mslp ppp RRR   cm mm wxwxwxwxwxwxwx
2019-09-30 17.6 21.9 11.8 9.5 52.8 10.5- 5.4--1003.5 969.3 1.8 1.8 0.0x- 4.5-------
2019-09-29 14.9 20.6 10.1 8.0 65.9 10.8- 2.8--1011.8 977.0 0.0 0.0 0.0x- 9.3-------
2019-09-28 15.2 19.8 12.7 10.3 72.3 12.3- 1.4--1015.0 980.1 0.0 0.0 0.0x- 2.8-------
2019-09-27 15.4 22.6 8.8 6.7 73.1 12.3- 0.8--1015.5 980.6 0.0 0.0 0.0x- 8.3-------
2019-09-26 14.2 19.6 8.7 7.6 76.4 12.1- 0.9--1012.5 977.6 0.0 0.0 0.0x- 7.4-------
2019-09-25 12.9 18.5 7.8 6.5 86.4 12.8- 0.6--1010.4 975.4 0.6 0.6 0.0x- 1.1-------
2019-09-24 11.3 17.2 6.3 4.8 83.6 11.1- 1.1--1015.5 980.2 1.3 0.0 1.3x- 5.7-------
2019-09-23 10.6 17.9 4.8 3.5 79.5 10.0- 0.6--1016.4 980.9 0.0 0.0 0.0x- 4.8-------
2019-09-22 12.2 22.3 4.1 2.7 70.9 9.5- 0.8--1019.6 984.2 0.0 0.0 0.0x- 11.7-------
2019-09-21 11.4 18.5 5.9 4.3 70.8 9.1- 1.5--1025.8 990.1 0.0 0.0 0.0x- 11.6-------
2019-09-20 8.3 13.3 3.8 2.8 79.1 8.5- 1.4--1027.5 991.3 0.8 0.8 0.0x- 5.2-------
2019-09-19 8.0 14.0 3.7 2.1 76.5 8.0- 1.5--1025.0 988.9 4.6 1.9 2.7x- 4.7-------
2019-09-18 9.8 14.3 8.6 5.5 61.9 7.4- 3.9--1019.3 983.6 0.0 0.0 0.0x- 5.1-------
2019-09-17 12.6 17.4 10.6 10.7 78.4 11.3- 2.0--1013.7 978.6 0.7 0.2 0.5x- 4.0-------
2019-09-16 15.2 23.5 8.9 7.9 70.5 11.8- 1.4--1017.2 982.2 2.2 0.0 2.2x- 7.0-------
2019-09-15 13.0 23.2 4.3 3.7 66.9 9.2- 1.3--1025.1 989.6 0.0 0.0 0.0x- 11.7-------
2019-09-14 14.1 18.2 12.2 10.2 65.8 10.4- 1.8--1031.7 996.1 0.0 0.0 0.0x- 8.7-------
2019-09-13 16.9 24.2 10.1 8.6 73.3 13.7- 1.3--1028.7 993.6 0.0 0.0 0.0x- 10.4-------
2019-09-12 16.0 24.1 9.3 7.7 75.8 13.3- 1.0--1028.2 993.0 0.0 0.0 0.0x- 12.1-------
2019-09-11 15.4 23.3 8.7 8.0 75.6 12.8- 1.0--1024.5 989.4 0.0 0.0 0.0x- 11.4-------
2019-09-10 14.7 22.1 8.9 7.7 73.9 11.9- 1.1--1019.4 984.4 0.0 0.0 0.0x- 10.7-------
2019-09-09 16.2 21.9 13.1 12.3 79.3 14.3- 2.1--1013.2 978.5 17.7 15.6 2.1x- 2.3-------
2019-09-08 18.5 24.3 14.7 14.6 75.4 15.5- 1.3--1016.8 982.3 0.1 0.1 0.0x- 9.4-------
2019-09-07 15.9 22.5 10.5 9.9 77.3 14.0- 1.0--1018.1 983.2 11.3 0.0 11.3x- 3.3-------
2019-09-06 16.6 20.9 13.7 12.7 66.3 12.1- 1.4--1022.1 987.2 0.0 0.0 0.0x- 8.2-------
2019-09-05 16.1 25.3 8.0 6.9 72.9 12.7- 0.8--1016.2 981.4 0.0 0.0 0.0x- 12.3-------
2019-09-04 14.4 22.6 7.6 7.0 73.0 11.3- 0.9--1021.3 986.1 0.0 0.0 0.0x- 12.6-------
2019-09-03 13.0 17.2 12.1 11.9 88.0 13.2- 1.0--1023.6 988.2 4.6 4.6 0.0x- 0.2-------
2019-09-02 18.8 22.7 16.6 16.1 80.9 17.5- 1.3--1016.4 981.9 3.5 1.0 2.5x- 2.2-------
2019-09-01 22.2 30.6 15.3 14.1 70.0 17.4- 0.9--1013.9 979.9 0.0 0.0 0.0x- 11.2-------
2019-08-31 21.1 29.3 15.4 14.6 76.5 18.4- 1.3--1020.2 985.8 0.0 0.0 0.0x- 10.3-------
2019-08-30 20.9 28.8 15.5 14.3 76.4 18.3- 1.5--1021.9 987.5 0.7 0.7 0.0x- 9.3-------
2019-08-29 21.9 31.8 15.3 14.1 71.9 17.7- 1.0--1019.2 985.0 0.0 0.0 0.0x- 8.7-------
2019-08-28 20.9 31.6 15.4 14.0 77.5 18.5- 1.0--1020.4 986.0 1.3 1.2 0.1x- 8.2-------
2019-08-27 22.9 31.6 16.5 14.6 68.6 18.2- 1.5--1020.9 986.7 0.0 0.0 0.0x- 12.1-------
2019-08-26 22.3 30.5 15.9 14.1 74.4 19.2- 0.9--1021.4 987.2 0.1 0.1 0.0x- 9.5-------
2019-08-25 20.7 28.8 14.1 12.9 78.1 18.7- 1.5--1022.3 987.8 0.0 0.0 0.0x- 8.7-------
2019-08-24 19.8 26.6 15.2 14.3 76.4 17.1- 1.0--1024.4 989.7 0.0 0.0 0.0x- 9.4-------
2019-08-23 17.7 23.7 13.2 12.9 81.9 16.2- 1.0--1026.8 991.9 0.0 0.0 0.0x- 4.6-------
2019-08-22 16.2 20.8 13.4 11.8 78.6 14.3- 1.6--1028.4 993.2 1.7 1.6 0.1x- 5.3-------
2019-08-21 17.9--- 84.4 17.4- 1.5--1024.3 989.4 0.0 0.0 0.0x- 2.2-------
2019-08-20 21.8 28.5 16.7 15.1 79.3 20.4- 1.4--1020.2 985.9 0.0 0.0 0.0x- 9.0-------
2019-08-19 23.3 32.6 15.6 13.5 67.1 18.4- 1.4--1015.6 981.7 0.0 0.0 0.0x- 11.0-------
2019-08-18 20.2 27.8 13.9 12.4 72.8 16.9- 1.0--1013.8 979.6 0.0 0.0 0.0x- 5.4-------
2019-08-17 17.8 24.9 12.1 11.1 76.1 15.0- 0.9--1016.5 981.9 0.0 0.0 0.0x- 7.1-------
2019-08-16 16.1 23.1 9.3 8.5 75.8 13.5- 0.9--1016.6 981.8 11.7 0.0 11.7x- 7.6-------
2019-08-15 14.9 22.3 8.7 8.0 70.0 11.1- 1.0--1017.4 982.4 0.0 0.0 0.0x- 10.5-------
2019-08-14 14.6 18.9 13.5 12.9 88.1 14.7- 1.3--1016.4 981.5 6.3 6.3 0.0x- 1.7-------
2019-08-13 18.9 27.2 16.9 16.6 85.8 18.6- 1.5--1015.7 981.2 17.1 2.9 14.2x- 1.3-------
2019-08-12 24.4 32.1 16.2 15.0 69.9 20.5- 1.6--1013.3 979.5 10.2 0.0 10.2x- 10.2-------
2019-08-11 21.9 26.7 18.4 18.3 71.8 18.1- 0.9--1018.0 983.8 0.0 0.0 0.0x- 10.5-------
2019-08-10 21.3 32.1 13.4 11.7 74.0 18.3- 1.1--1014.8 980.7 36.6 0.0 36.6x- 7.5-------
2019-08-09 20.4 27.9 13.0 11.3 65.0 14.5- 1.1--1014.5 980.2 0.0 0.0 0.0x- 10.9-------
2019-08-08 20.5 25.8 17.1 16.4 71.0 16.6- 1.9--1011.4 977.3 0.0 0.0 0.0x- 7.8-------
2019-08-07 22.6 29.6 16.9 15.0 70.4 18.8- 1.4--1009.2 975.4 17.0 1.8 15.2x- 8.7-------
2019-08-06 21.3 28.2 15.5 14.2 64.9 16.0- 1.4--1012.3 978.2 0.1 0.1 0.0x- 8.3-------
2019-08-05 20.2 27.2 13.7 12.5 57.5 12.8- 1.8--1013.6 979.3 0.1 0.0 0.1x- 11.4-------
2019-08-04 17.5 23.6 12.4 10.6 64.5 12.4- 1.8--1014.1 979.5 0.3 0.2 0.1x- 8.4-------
2019-08-03 17.8 22.5 14.1 11.8 69.4 13.8- 1.5--1011.1 976.7 0.0 0.0 0.0x- 6.0-------
2019-08-02 19.4 25.8 13.6 12.0 70.8 15.3- 1.4--1013.2 978.9 0.0 0.0 0.0x- 10.2-------
93.6 ms

 

Źródłem pochodzenia danych jest Instytut Meteorologii i Gospodarki Wodnej – Państwowy Instytut Badawczy. Dane Instytutu Meteorologii i Gospodarki Wodnej – Państwowego Instytutu Badawczego zostały przetworzone.

Dane źródłowe można odnaleźć na stronie https://dane.imgw.pl